MST,Max TemperatureF,Mean TemperatureF,Min TemperatureF,Max Dew PointF,MeanDew PointF,Min DewpointF,Max Humidity, Mean Humidity, Min Humidity, Max Sea Level PressureIn, Mean Sea Level PressureIn, Min Sea Level PressureIn, Max VisibilityMiles, Mean VisibilityMiles, Min VisibilityMiles, Max Wind SpeedMPH, Mean Wind SpeedMPH, Max Gust SpeedMPH,PrecipitationIn, CloudCover, Events, WindDirDegrees
2012-11-1,83,57,30,28,23,18,78,44,10,30.07,29.90,29.74,10,10,10,23,9,30,0.00,0,,201
2012-11-2,75,56,36,33,27,22,70,43,16,30.08,29.90,29.74,10,10,10,23,9,33,0.00,0,,325
2012-11-3,65,47,29,35,29,26,85,55,24,30.22,30.15,30.09,10,10,10,18,6,26,0.00,0,,152
2012-11-4,69,48,26,27,25,22,85,51,16,30.20,30.12,30.03,10,10,10,17,6,20,0.00,0,,278
2012-11-5,66,51,35,32,29,25,64,44,24,30.25,30.14,30.04,10,10,9,14,6,18,0.00,1,,251
2012-11-6,69,52,34,36,30,25,70,49,27,30.22,30.15,30.09,10,10,9,12,4,14,0.00,0,,206
2012-11-7,76,52,28,32,29,26,85,52,18,30.12,29.96,29.79,10,10,10,15,5,18,0.00,0,,211
2012-11-8,76,55,34,31,26,22,75,44,13,29.87,29.78,29.70,10,10,10,17,8,22,0.00,0,,127
2012-11-9,80,53,26,34,27,18,92,51,10,29.72,29.61,29.50,10,10,9,24,7,26,0.00,0,,225
2012-11-10,74,54,33,44,28,6,59,38,16,29.78,29.49,29.34,10,9,4,53,24,64,0.05,1,Rain,238
2012-11-11,35,26,17,28,24,16,85,73,61,30.33,30.07,29.79,10,6,0,18,6,24,0.08,7,Fog-Snow,22
2012-11-12,52,30,8,23,12,7,92,57,22,30.48,30.33,30.23,10,6,0,10,3,13,0.00,2,Fog,228
2012-11-13,58,39,20,19,14,8,84,50,15,30.34,30.23,30.12,10,10,10,18,5,24,0.00,0,,295
2012-11-14,66,42,17,21,15,11,80,46,12,30.35,30.18,30.04,10,10,10,20,6,23,0.00,0,,221
2012-11-15,60,42,24,32,25,16,76,52,28,30.39,30.29,30.08,10,10,10,16,6,23,0.00,0,,353
2012-11-16,64,41,18,26,22,15,84,53,21,30.38,30.21,30.03,10,10,10,24,10,32,0.00,0,,169
2012-11-17,69,47,24,32,21,17,75,45,15,30.12,30.03,29.93,10,10,10,17,6,22,0.00,0,,24
2012-11-18,69,48,26,24,21,19,84,50,16,30.03,29.95,29.88,10,10,10,14,7,17,0.00,0,,260
2012-11-19,68,47,26,28,23,17,69,46,22,30.22,30.15,30.02,10,10,10,13,5,16,0.00,0,,223
2012-11-20,71,47,22,21,17,13,81,47,13,30.29,30.16,30.01,10,10,10,20,8,24,0.00,0,,208
2012-11-21,77,51,24,22,15,5,55,32,9,30.03,29.90,29.77,10,10,10,15,6,16,0.00,0,,239
2012-11-22,64,42,20,28,16,11,50,34,17,30.48,30.09,29.77,10,10,10,23,8,28,0.00,0,,279
2012-11-23,55,34,13,13,11,7,80,49,18,30.63,30.47,30.27,10,10,10,15,5,20,0.00,0,,190
2012-11-24,70,45,19,16,10,6,62,36,10,30.24,30.03,29.86,10,10,10,14,7,17,0.00,0,,249
2012-11-25,60,39,17,22,16,5,75,48,20,30.03,29.91,29.80,10,10,10,16,6,20,0.00,0,,122
2012-11-26,37,25,13,23,19,11,100,76,52,30.46,30.31,29.96,10,10,10,14,4,21,0.00,4,,20
2012-11-27,67,38,9,23,11,-2,92,49,6,30.40,30.24,30.06,10,9,7,16,4,18,0.00,0,,235
2012-11-28,58,35,11,16,11,5,73,44,15,30.36,30.19,30.06,10,10,9,12,5,13,0.00,0,,215
2012-11-29,66,41,16,10,6,3,68,38,8,30.08,30.01,29.92,10,10,8,15,4,18,0.00,0,,236
2012-11-30,69,44,19,23,15,3,52,34,16,30.12,29.95,29.78,10,10,10,16,6,20,0.00,0,,162